Weather Roundup
Issued by NWS Springfield, MO

Home | Current Version | Previous Version | Text Only | Print | Product List | Glossary On
Versions: 1 2 3 4 5 6 7 8 9 10 11 12 13 14 15 16 17 18 19 20 21 22 23 24 25 26 27 28 29 30 31 32 33 34 35 36 37 38 39 40 41 42 43 44 45 46 47 48 49 50
000
NZUS99 KSGF 180207
HRRSGF

HOURLY WEATHER
NATIONAL WEATHER SERVICE SPRINGFIELD MO
800 PM CST WED JAN 17 2018

......SGF CWA......

CITY           SKY/WX    TMP DP  RH WIND       PRES   REMARKS
SPRINGFIELD    CLOUDY     8   2  76 SW5       30.52F WCI   0
JOPLIN         CLOUDY    13   8  81 SE3       30.55F
WEST PLAINS    CLOUDY    15   6  67 SW3       30.54S
ROLLA          CLOUDY    16   7  67 SW8       30.52S WCI   5
OSAGE BEACH    CLOUDY    18   8  65 SW7       30.54F WCI   9
BRANSON        CLEAR     16   7  67 CALM      30.54F

......SURROUNDING SGF CWA......

CITY           SKY/WX    TMP DP  RH WIND       PRES   REMARKS
CHANUTE        CLOUDY    15   9  76 SE7       30.52F WCI   5
PARSONS        CLOUDY    14   9  80 SE3       30.54F
COFFEYVILLE    CLOUDY    19   8  62 S5        30.55S WCI  12
EMPORIA        CLEAR     17  12  80 S7        30.47F WCI   8
GROVE OK       CLOUDY    19  16  86 CALM      30.58S
ROGERS AR      CLOUDY    20   7  57 SW5       30.54S WCI  13
SILOAM SPRINGS CLOUDY    22   7  52 S6        30.56S WCI  14
HARRISON AR    CLOUDY    20   9  62 CALM      30.53F
NEAR YELLVILLE CLEAR     15   8  73 CALM      30.59S

......KANSAS AND MISSOURI......

CITY           SKY/WX    TMP DP  RH WIND       PRES   REMARKS
KANSAS CTY INT CLOUDY    19  10  68 S13       30.46F WCI   6
DOWNTOWN KC    CLOUDY    21  10  62 S10       30.49F WCI  10
COLUMBIA       CLOUDY    14   7  73 SW9       30.50F WCI   2
SEDALIA        CLOUDY    19  10  68 SW13      30.51F WCI   6
ST JOSEPH      CLOUDY    16   9  74 S9        30.45F WCI   4
ST LOUIS       CLOUDY    20  10  65 SW5       30.53F WCI  13
SPIRIT OF STL  CLOUDY    15  10  80 CALM      30.54F
KIRKSVILLE     CLOUDY    17  11  77 SW13      30.44F WCI   4
WICHITA        CLOUDY    24   8  50 S10       30.45F WCI  14
TOPEKA         CLOUDY    22  13  68 S7        30.47F WCI  13
OLATHE         CLOUDY    16   9  74 S10       30.48F WCI   4

......TENNESSEE......

CITY           SKY/WX    TMP DP  RH WIND       PRES   REMARKS
MEMPHIS        FAIR      16   9  74 CALM      30.63F
NASHVILLE      FAIR      15   7  70 N5        30.59S WCI   8

......ARKANSAS.......

CITY           SKY/WX    TMP DP  RH WIND       PRES   REMARKS
FAYETTEVILLE   CLOUDY    20   8  60 CALM      30.55S
FT SMITH       CLOUDY    23  10  57 E3        30.61F
LITTLE ROCK    CLOUDY    17  11  77 S3        30.66S

......OKLAHOMA.......

CITY           SKY/WX    TMP DP  RH WIND       PRES   REMARKS
TULSA          CLEAR     25   9  50 S7        30.56F WCI  17
PONCA CITY     CLOUDY    26   6  42 S9        30.51S WCI  17
MCALESTER      CLOUDY    17   7  64 CALM      30.59S
OKLAHOMA CITY  CLOUDY    20   5  52 S7        30.52R WCI  11

......IOWA............

CITY           SKY/WX    TMP DP  RH WIND       PRES   REMARKS
DES MOINES     CLOUDY    20  10  65 SW14      30.33F WCI   7
QUAD CITIES    FAIR      18  10  71 SW12      30.36F WCI   5

......ILLINOIS........

CITY           SKY/WX    TMP DP  RH WIND       PRES   REMARKS
QUINCY         CLOUDY    15   8  73 SW10      30.46F WCI   2
CHICAGO        FAIR      18   8  65 SW18G26   30.28F WCI   2



USA.gov is the U.S. government's official web portal to all federal, state and local government web resources and services.